Regional Weather Roundup
Issued by NWS

Home | Current Version | Previous Version | Text Only | Print | Product List | Glossary On
Versions: 1 2 3 4 5 6 7 8 9 10 11 12 13 14 15 16 17 18 19 20 21 22 23 24 25 26 27 28 29 30 31 32 33 34 35 36 37 38 39 40 41 42 43 44 45 46 47 48 49 50
000
ASUS45 KBOI 010310
RWRID

IDAHO REGIONAL WEATHER ROUNDUP
NATIONAL WEATHER SERVICE BOISE ID
900 PM MDT WED AUG 31 2016

NOTE: "FAIR" INDICATES FEW OR NO CLOUDS BELOW 12000 FEET
WITH NO SIGNIFICANT WEATHER AND/OR OBSTRUCTIONS TO VISIBILITY

IDZ012-014-010400-
SOUTHWEST IDAHO


CITY           SKY/WX    TMP DP  RH WIND       PRES   REMARKS
BOISE          CLEAR     82  40  22 W10       29.83R
CALDWELL       CLEAR     76  45  33 NE6       29.80F
MOUNTAIN HOME  PTCLDY    85  39  19 N13       29.83R
$$

IDZ016-017-010400-
SOUTHCENTRAL IDAHO


CITY           SKY/WX    TMP DP  RH WIND       PRES   REMARKS
BURLEY         CLOUDY    74  50  42 CALM      29.92S
JEROME         CLOUDY    76  48  37 N6        29.93S
TWIN FALLS     CLOUDY    79  39  23 W5        29.93R
$$

IDZ019>023-010400-
SOUTHEAST IDAHO


CITY           SKY/WX    TMP DP  RH WIND       PRES   REMARKS
IDAHO FALLS    PTCLDY    77  41  27 SE6       30.00S
POCATELLO      PTCLDY    73  38  27 S10       29.97S
REXBURG        PTCLDY    74  43  32 CALM      30.01S
$$

IDZ006-010-011-018-031-032-010400-
CENTRAL IDAHO MOUNTAINS


CITY           SKY/WX    TMP DP  RH WIND       PRES   REMARKS
MCCALL         MOCLDY    67  35  30 NE3       30.01S
HAILEY         MOCLDY    73  41  31 NW9       30.07R
STANLEY          N/A     69  33  26 S8        30.13S
SALMON         PTCLDY    79  39  24 SW7       29.95R
CHALLIS        CLOUDY    80  31  16 SW15G32   30.01R
$$

IDZ002-004-006-007-026-010400-
NORTHERN IDAHO


CITY           SKY/WX    TMP DP  RH WIND       PRES   REMARKS
LEWISTON       PTCLDY    77  41  27 W8        29.86R
LOWELL           N/A     67  57  70 CALM      29.84R
COEUR D`ALENE  MOCLDY    72  39  30 E9        29.85R
MULLAN PASS    MOCLDY    60  40  47 NW8       30.05S
$$



USA.gov is the U.S. government's official web portal to all federal, state and local government web resources and services.